Vorticity
9 3 6 13 13 4 7 18 12 11 15 12 17 15 7 10 11 7 9 11 8 9 8 7 8 6 7 6 4 5 3 6 4 1 2 -4 -1 12 9 5 13 6 -0 4 2 3 2 2 8 8 7 5 5 7 6 6 6 7 6 6 6 5 5 5 5 6 6 5 5 5 4 5 5 5 5 4 5 4 3 4 4 3 3 4 4 5 5 6
15 7 11 7 8 12 8 15 13 9 14 15 19 14 8 10 8 7 10 10 7 8 7 6 8 5 9 6 1 6 1 -6 -5 -7 -2 8 2 8 17 5 14 19 3 -0 -2 5 4 -0 10 8 5 5 5 6 6 7 6 7 7 5 7 5 4 5 5 6 5 4 4 4 5 5 5 5 5 5 5 4 4 4 3 3 3 4 4 5 4 5
24 12 14 9 2 12 9 8 13 10 13 17 17 11 8 9 7 7 10 9 6 8 6 6 8 3 11 9 1 7 4 -2 -1 -4 -2 17 11 6 21 3 9 28 8 -3 -2 5 4 -0 10 8 5 5 4 6 5 8 6 6 7 4 6 5 5 4 3 4 4 4 3 4 5 5 5 5 5 5 5 5 6 5 4 4 3 4 4 5 5 5
25 19 12 15 7 11 10 8 15 14 14 15 10 9 10 7 7 8 9 7 4 8 6 7 7 2 10 10 5 5 6 7 3 -0 -3 12 18 10 18 -0 2 29 11 -4 1 6 3 1 10 7 4 4 4 6 5 7 7 6 6 4 5 5 6 3 3 4 3 4 3 3 5 5 6 6 6 6 7 7 7 6 5 4 3 4 4 3 4 4
13 20 9 17 15 8 6 9 17 15 11 11 8 9 9 6 8 9 6 5 4 6 7 8 6 4 11 9 10 10 5 6 2 2 -1 11 24 11 15 3 -6 19 14 2 5 7 5 4 9 8 5 4 4 5 5 7 7 6 5 4 4 5 6 3 4 4 2 3 3 4 5 5 6 6 6 7 9 7 6 7 6 6 7 7 6 5 5 4
-7 13 10 10 14 9 6 11 16 11 8 8 8 8 8 7 8 7 4 4 4 6 7 7 4 6 12 6 9 17 8 5 7 3 2 19 27 10 11 6 -4 8 9 9 12 6 7 7 6 7 5 5 5 5 5 7 7 5 4 4 4 5 5 2 3 2 2 3 2 3 3 5 6 5 8 7 7 7 6 8 8 8 8 7 7 7 7 6
-20 3 16 11 12 12 10 15 13 7 8 7 7 8 6 7 7 6 4 4 4 5 7 5 5 8 10 5 8 19 6 4 15 5 6 21 18 10 10 6 3 7 7 13 14 6 9 10 3 5 6 4 6 5 5 7 7 5 3 4 3 4 4 3 3 1 1 3 2 3 3 5 5 5 7 6 7 9 8 8 7 6 5 5 5 4 4 4
-15 -6 17 17 13 15 11 13 9 4 8 5 5 8 5 7 6 5 3 3 5 5 8 3 5 9 7 7 11 19 3 -0 16 4 10 20 6 11 15 9 7 10 16 18 12 6 12 12 1 3 7 3 4 5 6 7 5 4 4 3 3 4 4 3 2 1 1 1 2 2 2 3 4 6 5 4 8 8 7 7 7 6 6 6 4 3 3 3
-5 -11 16 23 11 15 13 8 6 3 7 4 5 7 4 7 5 5 4 3 5 5 8 3 5 10 5 9 13 17 4 -3 11 -0 7 19 3 11 18 12 15 23 22 15 10 6 14 13 -0 2 6 3 4 5 6 6 5 4 4 2 2 5 4 3 2 1 1 1 2 1 2 3 3 4 2 4 8 6 5 6 6 6 6 5 5 5 5 4
4 -16 8 29 12 14 15 5 5 4 7 5 5 7 3 6 4 5 5 3 7 5 7 4 7 10 6 12 14 16 7 -2 11 3 3 16 5 10 18 11 22 31 16 11 11 5 18 15 -3 1 4 3 5 5 5 5 5 4 4 3 2 5 4 3 3 1 1 1 2 2 2 2 3 3 1 4 6 4 5 5 4 5 5 4 5 5 4 4
11 -22 -5 31 14 12 16 2 5 5 7 7 4 7 4 5 5 5 5 3 7 6 5 5 8 11 10 17 18 20 9 -5 14 16 5 11 9 12 14 9 22 23 6 15 13 3 22 13 -5 3 3 4 5 4 5 3 5 4 3 5 3 4 4 3 3 1 2 1 1 1 1 2 3 2 1 4 3 3 4 3 4 3 4 4 4 4 3 3
17 -12 -7 32 20 12 17 -0 3 7 8 8 3 7 4 4 6 4 6 5 7 6 4 5 8 9 11 15 16 22 11 -7 10 28 19 5 4 16 15 9 20 15 5 19 12 5 22 8 -3 5 -0 3 4 4 7 3 5 3 2 5 4 4 3 3 2 1 2 1 1 1 2 2 1 1 3 4 2 2 3 2 3 2 3 3 2 3 2 2
19 -2 -19 25 29 14 15 -0 3 9 8 7 4 7 4 4 7 3 6 7 8 7 3 5 8 9 11 13 14 21 16 -5 -9 9 22 13 4 15 17 11 17 15 9 15 8 9 21 5 -3 3 -1 2 4 5 7 5 6 3 3 4 3 4 2 3 2 2 3 1 3 2 2 3 2 4 5 4 1 2 2 1 2 1 1 2 0 1 0 1
24 7 -23 24 36 12 12 0 4 12 7 7 5 6 4 4 7 4 5 6 7 8 6 9 11 12 14 11 8 20 25 7 -11 -16 -6 10 15 15 15 11 14 16 13 13 10 13 19 3 -6 2 3 5 6 5 5 7 6 2 5 3 3 4 1 4 2 2 3 1 4 2 2 5 4 5 3 1 1 2 2 0 1 1 1 1 0 1 0 0
22 7 -18 25 29 8 12 -1 6 14 6 7 5 6 5 4 8 7 7 6 6 6 7 10 10 11 12 4 -1 13 25 16 9 -1 -16 -11 10 18 13 9 12 15 14 15 14 16 17 0 -4 5 4 6 6 4 5 7 5 2 4 3 2 5 2 4 3 2 3 2 4 3 4 6 4 4 2 1 1 1 2 1 1 1 1 1 1 2 1 2
17 2 -11 20 18 12 11 -4 10 13 5 9 5 6 5 4 7 8 8 6 5 6 6 6 7 9 4 1 -0 4 17 19 17 19 5 -11 -0 18 15 5 11 14 12 18 18 17 15 0 -1 6 2 5 5 3 7 6 4 3 3 3 2 4 4 3 3 3 3 2 4 3 5 6 4 4 4 3 2 2 3 2 2 3 3 3 3 4 4 4
19 6 2 18 14 18 7 -3 14 10 6 9 4 7 4 4 7 7 10 6 6 7 3 0 -0 1 1 6 10 0 4 18 19 21 23 8 3 19 20 7 12 16 9 19 20 11 13 4 -2 4 2 5 4 3 8 4 3 3 2 5 4 5 4 2 3 3 3 3 3 4 5 5 5 5 5 5 4 3 4 4 4 5 5 5 5 5 5 5
18 8 18 24 13 19 4 -0 16 8 8 7 3 8 3 4 6 5 10 6 4 3 2 3 -7 -6 4 9 13 4 -6 3 13 13 18 19 10 14 23 15 13 17 9 19 21 7 12 7 -5 3 4 3 5 4 6 4 4 4 2 4 4 5 5 4 6 4 5 4 4 4 4 5 4 5 5 5 5 4 4 5 4 5 5 5 5 5 4 4
11 6 29 28 10 16 4 4 16 7 7 6 2 6 4 6 6 7 11 6 4 1 2 5 -7 -3 9 6 8 9 -2 -7 1 5 6 14 9 1 14 21 18 15 9 19 22 11 14 7 -3 4 4 2 4 3 6 5 5 6 4 4 4 5 5 4 5 4 4 4 4 5 5 5 3 4 5 4 5 4 4 4 4 5 5 4 4 4 4 4
7 2 25 24 11 13 4 7 14 6 6 3 -0 2 1 3 2 5 8 6 8 0 -3 3 0 5 9 5 6 8 7 1 -2 1 -0 5 9 4 6 17 25 17 8 20 25 15 16 9 1 3 -2 -2 2 2 6 5 5 6 4 5 7 8 8 6 5 5 4 4 5 4 5 6 3 3 5 3 4 4 4 4 4 4 4 4 4 4 4 4
8 6 21 19 14 8 2 11 12 6 7 4 4 5 2 2 -0 2 5 5 4 -5 -5 5 4 1 -1 5 12 7 9 12 7 8 5 -1 5 13 8 10 28 24 8 23 28 13 16 11 0 -1 -5 -2 1 3 7 4 5 5 2 5 8 8 9 8 6 5 5 4 5 4 4 6 4 3 4 4 4 4 4 3 4 4 4 4 4 4 4 4
9 23 23 14 15 6 4 14 11 6 8 3 5 9 8 9 5 6 12 9 1 -4 1 6 3 2 -4 -3 11 10 6 8 7 10 12 5 2 11 14 8 24 29 12 24 27 7 12 11 -2 -3 -4 -1 2 4 6 5 6 5 1 4 7 7 7 6 6 4 4 4 4 4 4 5 4 3 3 4 3 3 4 3 3 5 4 4 4 4 4 3
16 31 11 11 19 6 7 15 12 8 5 2 3 7 8 9 7 6 12 11 5 4 5 3 -2 3 1 -7 2 10 11 10 6 8 11 12 8 8 15 10 18 30 18 22 25 8 12 12 -3 -4 -2 -0 4 5 5 4 6 5 2 4 7 6 5 6 6 4 4 3 3 4 3 4 3 3 3 4 4 3 3 3 3 5 4 4 4 4 4 4
27 25 -5 18 22 1 13 15 9 7 1 4 5 5 8 7 7 5 6 8 8 6 3 3 -0 1 5 3 4 6 10 12 9 11 10 11 13 8 13 17 20 28 23 26 31 19 16 10 -3 -1 1 1 4 6 4 4 8 7 2 5 8 5 5 7 5 4 4 3 3 3 2 3 3 4 4 4 4 3 2 3 3 4 5 5 4 4 5 5
24 15 -10 27 20 -2 20 12 4 5 -2 5 5 6 9 6 7 6 5 5 6 7 2 4 6 3 4 2 6 7 7 9 9 12 10 9 13 10 15 24 23 26 28 31 32 20 14 5 -3 2 3 1 5 7 5 3 8 9 4 5 8 5 3 6 5 4 6 5 3 3 3 3 3 4 4 5 6 3 2 4 4 5 5 5 5 5 5 5
18 20 1 22 13 1 19 7 2 5 -2 5 5 7 9 5 8 5 4 4 2 7 4 2 4 4 6 4 5 8 5 8 9 8 9 8 9 13 21 26 25 28 30 32 27 16 9 1 -2 4 3 2 4 6 5 3 8 10 4 4 8 6 2 4 5 4 6 6 3 5 4 2 3 4 3 4 6 4 3 4 5 5 4 4 5 4 5 5
10 26 15 13 7 5 11 2 2 3 1 5 3 7 8 5 8 4 2 2 2 8 5 2 2 -2 2 5 5 7 5 6 8 6 7 7 8 16 25 27 28 28 25 27 23 13 7 -0 -0 3 2 4 4 4 5 4 8 10 3 3 7 6 2 3 5 5 6 5 4 6 5 3 2 3 3 3 5 5 2 3 4 3 2 3 4 4 5 5
1 21 21 7 9 13 11 7 5 3 3 5 4 8 8 5 7 5 3 3 3 9 6 2 3 -0 -0 2 4 8 8 8 10 9 6 6 9 18 26 29 30 27 24 23 17 11 6 -1 1 3 2 6 6 4 5 4 9 10 3 4 6 4 3 3 4 8 6 3 6 6 4 4 3 2 4 4 4 4 1 1 3 2 2 2 3 4 5 5
-3 19 20 3 11 13 8 11 7 5 6 4 6 7 6 7 7 5 7 8 3 4 7 4 4 5 4 3 3 6 7 6 8 11 10 9 12 18 27 31 28 23 23 23 17 13 8 0 0 3 5 9 7 6 5 4 9 10 2 4 7 4 4 4 3 6 5 2 5 5 4 5 3 1 3 5 4 2 0 2 2 2 3 3 3 4 5 4
-3 20 17 1 9 6 2 7 3 6 8 4 7 7 6 8 6 6 10 10 4 2 5 6 5 7 7 6 5 4 6 7 7 8 10 12 17 23 27 29 24 17 17 19 14 7 3 0 1 5 9 9 6 6 5 4 9 11 4 3 7 6 3 4 5 4 5 5 4 3 4 4 4 1 1 4 5 2 2 2 1 2 3 3 4 3 4 4
5 19 14 4 9 7 4 3 -1 5 7 4 8 7 8 10 7 7 9 7 4 2 3 5 5 6 8 7 6 4 5 8 7 6 8 9 15 20 17 16 15 8 7 12 12 4 -2 -0 4 8 10 7 5 5 3 5 8 9 8 3 5 8 6 5 5 4 6 6 3 2 3 4 5 2 1 3 4 4 5 1 -0 2 2 2 3 4 4 5
13 18 13 8 10 11 9 4 2 4 3 6 8 7 9 9 6 6 7 4 3 2 1 2 3 5 8 6 5 6 5 7 7 6 10 11 15 20 16 17 17 9 4 4 6 3 -2 -1 4 9 9 5 4 4 2 6 6 6 10 4 2 7 8 6 5 5 6 5 3 3 3 5 5 1 2 4 2 2 4 2 -0 1 3 3 2 4 5 5
12 16 9 8 9 10 8 4 4 3 5 7 6 8 11 7 2 3 4 4 3 4 2 1 3 4 6 5 4 5 4 8 10 8 12 14 18 23 20 21 22 17 16 12 6 4 1 -0 0 5 9 5 3 4 5 6 3 5 8 3 2 6 7 8 6 5 6 4 3 3 4 7 5 0 3 6 2 -0 2 3 2 -0 2 3 2 3 5 5
12 14 7 8 8 8 6 2 4 5 8 8 5 8 10 6 4 3 4 5 3 3 3 3 5 2 4 6 5 5 5 7 9 10 14 11 9 13 15 17 16 12 13 13 7 5 7 5 -1 2 6 3 3 4 6 7 4 6 8 2 3 6 7 9 9 7 7 5 4 3 5 8 4 0 3 6 4 -1 -1 3 3 1 1 2 2 3 4 5
11 13 11 12 9 6 4 2 4 8 8 7 6 7 8 7 7 5 5 7 5 4 4 4 5 3 3 5 5 7 9 7 7 10 11 7 7 13 18 20 18 10 6 7 7 3 6 9 4 3 4 2 6 5 3 5 5 6 8 4 4 5 5 6 9 10 8 7 7 6 7 8 5 1 2 5 6 1 -2 -0 2 4 3 1 2 3 5 6
12 14 11 11 9 4 3 3 4 8 10 7 4 8 10 7 5 5 5 6 5 6 7 4 3 4 4 5 4 7 10 9 8 8 8 11 13 15 18 18 17 14 10 11 11 4 4 8 4 3 4 2 5 6 4 5 5 5 7 7 6 7 7 5 7 10 7 8 10 7 7 7 6 5 2 3 5 3 1 -1 -1 3 4 2 2 2 4 6
15 14 8 6 5 3 3 5 6 7 8 9 7 8 8 4 3 5 4 5 6 8 9 5 3 4 5 6 5 7 10 9 4 6 12 14 11 12 16 16 13 13 13 12 11 9 8 8 4 3 4 3 3 6 7 7 6 5 6 7 5 6 10 8 8 10 9 9 10 6 6 7 7 8 4 1 4 4 4 3 1 1 3 4 4 4 4 5
15 12 7 3 2 4 4 4 7 8 6 9 10 6 5 4 5 5 4 4 6 9 10 7 6 6 5 5 5 7 9 7 4 7 12 9 10 18 20 15 10 9 12 11 8 10 10 6 8 7 4 3 4 4 7 7 5 6 7 6 4 6 8 6 6 9 9 10 12 8 5 6 8 9 4 1 3 5 5 6 4 2 2 4 4 5 5 5
14 10 4 2 2 4 5 4 6 7 7 8 7 4 5 7 7 5 5 4 4 7 9 8 8 8 7 6 6 8 8 6 5 7 10 8 12 20 19 16 14 7 7 9 8 10 11 8 10 10 5 5 6 5 7 6 4 5 6 4 4 7 8 7 8 10 8 9 12 10 7 7 7 9 8 2 1 4 6 6 6 5 3 3 4 5 6 6
12 8 3 4 2 3 5 6 6 7 9 8 5 5 5 6 8 5 5 5 3 8 11 10 9 7 9 8 6 10 11 8 7 6 9 11 11 16 17 15 13 7 3 5 6 7 8 10 12 9 7 8 8 8 8 6 5 6 6 4 4 5 6 6 7 9 10 11 11 12 12 9 5 6 12 8 2 5 9 7 7 8 6 5 6 8 8 8
11 8 5 4 1 4 6 3 4 5 7 7 6 8 5 4 7 4 5 7 5 7 10 12 11 8 11 10 5 9 11 8 10 9 8 9 9 14 18 13 10 7 4 4 5 4 3 7 10 8 8 9 9 9 9 9 9 8 8 8 6 7 10 11 8 7 8 9 9 11 13 14 8 2 7 12 8 7 9 9 8 8 7 7 7 8 8 8
8 5 5 5 1 5 6 4 5 3 4 6 4 5 5 5 6 4 6 9 8 8 8 9 11 9 11 11 5 8 12 8 8 9 9 12 14 15 19 19 11 5 4 4 5 6 4 4 7 7 8 8 8 8 7 9 10 9 9 7 5 7 8 9 12 10 10 11 11 12 12 13 12 5 2 8 11 9 9 10 9 9 8 7 7 7 5 5
6 4 2 6 4 4 6 5 5 3 2 4 2 4 6 4 6 5 4 8 9 9 7 7 10 10 11 11 3 7 17 14 6 5 8 14 15 13 14 18 12 3 4 5 3 4 4 3 4 6 8 8 8 9 9 9 8 9 10 8 5 6 5 6 10 8 8 9 8 13 16 11 10 11 8 6 9 10 10 10 9 10 11 10 8 7 5 4
5 5 2 5 2 1 4 0 2 4 4 5 2 2 2 1 4 4 3 6 7 7 7 7 9 10 12 12 5 3 14 19 14 8 7 11 12 10 11 15 12 7 7 7 7 6 4 3 3 3 5 6 5 6 5 4 2 2 5 5 4 5 5 6 8 7 7 6 1 7 16 9 2 8 9 7 8 9 9 10 10 10 12 11 9 7 5 5
5 4 3 8 5 1 1 -1 2 6 5 5 2 -1 -1 -1 2 3 3 4 4 5 7 6 8 11 12 12 9 4 6 14 20 14 8 9 10 9 9 10 9 10 8 5 9 11 9 9 7 3 5 5 2 2 1 2 4 4 3 4 4 5 4 4 9 11 11 8 3 4 12 10 2 3 4 5 8 8 8 11 11 11 10 8 8 7 6 6
4 -0 -3 2 5 2 2 2 3 1 0 2 2 1 2 1 2 2 2 4 4 4 5 4 7 11 12 11 10 8 7 9 16 18 14 10 8 8 8 6 5 10 9 4 5 8 8 10 8 7 8 7 6 7 7 8 12 10 7 5 4 3 4 3 4 5 5 8 6 5 9 8 2 2 4 5 8 9 8 7 6 6 5 3 4 5 4 4
3 -1 -8 -8 -3 -1 1 3 1 -1 0 2 2 4 4 2 3 2 -1 1 3 4 5 4 3 5 9 11 10 8 8 7 9 14 16 14 9 7 7 6 5 6 8 8 7 6 7 7 5 6 8 8 6 6 5 6 8 10 10 9 9 9 10 7 4 4 7 8 5 3 8 9 5 7 9 8 7 8 7 5 4 2 1 0 1 2 2 2
4 5 -0 -7 -4 -0 2 5 4 3 4 4 2 4 4 1 0 1 0 -1 -0 1 4 4 3 2 4 10 14 12 9 9 8 8 11 14 13 9 5 4 5 4 4 5 4 4 6 7 8 8 8 9 8 5 4 4 4 6 7 7 7 9 10 10 8 9 10 9 5 3 5 7 6 5 5 4 2 1 1 1 1 0 -0 0 0 1 2 4
5 10 9 0 -1 -0 3 11 11 6 5 5 2 1 2 1 -1 -0 1 -0 -0 2 2 3 5 5 2 3 9 11 10 9 9 8 8 10 12 14 10 5 3 4 3 3 4 4 3 5 9 9 8 10 11 9 7 6 6 5 4 4 3 2 2 3 1 -1 -3 -4 -1 -1 -1 1 1 -3 -4 -3 -2 -1 0 1 3 4 4 3 3 3 4 5
12 10 9 6 5 3 3 7 8 6 6 5 1 0 1 1 1 2 1 -0 1 3 3 4 6 6 6 4 2 5 9 10 10 12 14 14 13 16 17 13 9 6 3 2 4 5 5 4 5 7 8 7 7 9 9 8 7 7 7 7 6 3 1 -2 -3 -2 -1 -1 5 9 6 4 5 5 5 4 5 7 8 9 8 8 8 9 9 11 11 11
13 13 11 8 10 11 8 3 2 5 7 1 -1 2 5 5 4 4 4 2 3 4 5 5 6 5 5 6 4 4 6 6 5 7 11 15 15 16 21 24 23 19 14 9 5 5 9 8 5 6 7 4 4 7 7 6 9 10 6 2 -1 -2 -1 0 4 9 11 11 12 12 7 6 11 14 13 11 10 9 8 7 8 9 11 12 11 10 10 9
10 14 14 11 11 11 11 8 1 -0 3 2 1 2 3 4 5 4 4 4 3 5 6 4 4 5 4 5 6 5 4 4 5 5 4 6 8 9 13 18 21 24 27 24 17 13 15 14 9 6 3 3 6 5 6 12 14 6 0 -0 2 4 6 9 11 9 8 10 8 4 4 10 13 9 7 9 8 6 5 5 5 5 5 4 3 4 5 6
Height
5627 5631 5636 5641 5645 5650 5654 5660 5666 5671 5677 5683 5690 5695 5700 5704 5710 5714 5718 5723 5728 5732 5737 5740 5744 5747 5750 5753 5756 5759 5762 5765 5768 5772 5776 5780 5783 5786 5790 5795 5799 5802 5807 5811 5814 5817 5819 5822 5825 5828 5830 5833 5836 5840 5842 5844 5846 5849 5853 5856 5858 5860 5861 5862 5863 5864 5867 5868 5869 5871 5872 5873 5874 5875 5877 5877 5878 5879 5880 5881 5882 5883 5884 5885 5887 5887 5888 5889
5621 5625 5631 5635 5639 5644 5649 5654 5661 5667 5673 5679 5685 5691 5696 5700 5706 5710 5714 5720 5725 5729 5733 5737 5741 5744 5747 5750 5753 5756 5759 5762 5765 5769 5773 5776 5780 5784 5787 5792 5795 5799 5803 5807 5811 5814 5816 5819 5822 5825 5828 5831 5835 5838 5840 5842 5845 5850 5853 5856 5857 5858 5860 5861 5862 5865 5867 5868 5869 5871 5872 5873 5874 5875 5877 5877 5878 5879 5880 5881 5882 5883 5884 5885 5887 5888 5888 5889
5615 5620 5625 5630 5634 5640 5645 5650 5656 5662 5669 5675 5681 5687 5691 5696 5702 5707 5711 5716 5721 5725 5730 5734 5737 5740 5744 5747 5749 5752 5756 5759 5762 5767 5771 5773 5776 5780 5784 5788 5791 5795 5800 5804 5808 5812 5814 5817 5820 5823 5826 5829 5832 5835 5838 5841 5845 5849 5852 5854 5855 5856 5859 5861 5863 5865 5866 5867 5869 5871 5872 5873 5874 5875 5876 5877 5878 5879 5880 5881 5882 5883 5884 5886 5887 5887 5888 5889
5610 5615 5620 5626 5630 5636 5641 5646 5652 5658 5665 5671 5677 5683 5687 5693 5698 5703 5708 5712 5717 5722 5726 5730 5734 5737 5740 5743 5745 5748 5752 5755 5760 5765 5767 5769 5773 5777 5780 5784 5787 5791 5796 5801 5806 5809 5811 5814 5818 5821 5823 5826 5829 5832 5836 5840 5844 5847 5850 5851 5852 5854 5857 5860 5862 5864 5865 5866 5868 5870 5871 5872 5873 5875 5876 5877 5878 5879 5880 5881 5883 5884 5885 5886 5887 5888 5888 5889
5605 5612 5616 5621 5626 5632 5637 5641 5648 5654 5661 5667 5673 5679 5684 5689 5695 5700 5705 5709 5714 5719 5723 5727 5731 5734 5737 5739 5741 5746 5749 5751 5758 5762 5763 5766 5769 5773 5777 5780 5783 5787 5792 5797 5803 5806 5808 5812 5816 5819 5822 5824 5827 5830 5834 5838 5842 5844 5847 5849 5851 5854 5857 5859 5861 5863 5864 5865 5867 5869 5870 5872 5873 5874 5875 5876 5877 5879 5881 5882 5883 5883 5884 5885 5886 5887 5888 5889
5600 5608 5612 5617 5623 5628 5632 5637 5644 5650 5656 5663 5669 5675 5680 5686 5692 5697 5701 5705 5710 5715 5719 5723 5727 5730 5733 5736 5739 5743 5746 5748 5754 5758 5759 5762 5765 5769 5772 5776 5779 5784 5788 5794 5801 5803 5805 5810 5814 5817 5821 5822 5825 5829 5834 5837 5839 5842 5846 5849 5853 5856 5857 5858 5860 5862 5864 5865 5867 5868 5870 5871 5872 5874 5874 5876 5878 5879 5880 5881 5882 5883 5883 5885 5886 5887 5888 5889
5595 5603 5609 5613 5619 5624 5629 5633 5640 5647 5653 5659 5665 5671 5677 5683 5688 5693 5697 5702 5707 5712 5716 5721 5724 5727 5730 5733 5736 5740 5744 5746 5752 5755 5756 5759 5761 5764 5768 5772 5776 5780 5785 5791 5797 5800 5802 5807 5811 5816 5819 5821 5825 5829 5832 5836 5839 5841 5844 5848 5852 5855 5856 5857 5859 5861 5863 5864 5866 5868 5869 5871 5873 5873 5874 5876 5877 5878 5879 5880 5881 5882 5883 5885 5886 5887 5888 5889
5590 5599 5605 5610 5615 5620 5626 5630 5636 5643 5649 5656 5662 5668 5674 5679 5685 5689 5694 5698 5704 5709 5713 5717 5720 5724 5728 5730 5733 5738 5741 5743 5748 5751 5752 5755 5758 5761 5765 5769 5772 5778 5783 5789 5794 5797 5800 5804 5808 5813 5817 5821 5826 5828 5831 5834 5837 5840 5843 5847 5850 5853 5854 5856 5858 5860 5862 5863 5865 5867 5869 5871 5872 5873 5874 5875 5876 5877 5878 5879 5880 5882 5883 5884 5886 5887 5888 5889
5587 5595 5601 5606 5611 5617 5623 5627 5633 5640 5646 5652 5658 5664 5670 5676 5681 5686 5691 5696 5701 5706 5710 5714 5718 5721 5725 5728 5731 5734 5737 5739 5743 5747 5750 5752 5755 5759 5763 5766 5770 5775 5780 5786 5791 5793 5797 5802 5806 5811 5815 5820 5824 5826 5830 5833 5836 5839 5843 5846 5849 5851 5852 5855 5857 5858 5860 5862 5864 5866 5868 5870 5871 5872 5873 5874 5875 5876 5878 5879 5880 5881 5882 5884 5885 5887 5888 5889
5583 5591 5597 5603 5608 5614 5620 5624 5630 5637 5643 5649 5654 5661 5666 5672 5678 5683 5688 5693 5698 5703 5708 5712 5715 5719 5722 5725 5729 5731 5734 5737 5740 5744 5748 5750 5752 5755 5759 5763 5767 5772 5777 5783 5787 5791 5795 5799 5803 5808 5812 5816 5819 5823 5827 5831 5834 5838 5842 5846 5848 5850 5851 5854 5855 5857 5859 5861 5863 5865 5867 5869 5871 5872 5873 5873 5874 5875 5877 5878 5880 5881 5882 5884 5885 5886 5887 5888
5578 5586 5593 5599 5605 5611 5617 5622 5628 5634 5639 5645 5651 5657 5663 5669 5675 5681 5686 5691 5696 5701 5706 5709 5712 5716 5720 5723 5727 5728 5730 5734 5737 5741 5744 5746 5749 5752 5756 5761 5765 5769 5775 5780 5785 5788 5792 5796 5800 5804 5808 5813 5817 5821 5824 5826 5830 5835 5840 5843 5846 5848 5849 5852 5854 5855 5857 5859 5862 5864 5866 5868 5870 5872 5872 5873 5873 5875 5876 5878 5879 5880 5882 5883 5884 5886 5887 5888
5573 5582 5590 5595 5602 5609 5614 5619 5625 5631 5635 5641 5648 5654 5660 5666 5672 5678 5684 5689 5694 5699 5703 5706 5709 5714 5717 5721 5723 5723 5726 5730 5734 5737 5740 5744 5746 5750 5753 5758 5762 5767 5772 5778 5782 5785 5788 5792 5796 5799 5804 5810 5815 5819 5822 5825 5829 5834 5837 5840 5843 5845 5847 5849 5851 5854 5856 5858 5859 5862 5864 5867 5869 5871 5871 5872 5873 5874 5876 5877 5878 5880 5881 5882 5884 5885 5887 5888
5570 5579 5587 5592 5599 5606 5612 5616 5622 5627 5632 5638 5644 5651 5657 5664 5670 5675 5682 5688 5692 5696 5700 5704 5708 5711 5715 5719 5721 5720 5722 5727 5731 5734 5737 5741 5744 5747 5751 5755 5759 5764 5769 5775 5779 5781 5784 5789 5793 5798 5803 5807 5811 5816 5820 5823 5827 5832 5834 5837 5839 5842 5844 5847 5849 5852 5854 5856 5857 5860 5863 5865 5866 5868 5869 5871 5873 5874 5875 5876 5877 5879 5880 5882 5883 5884 5886 5887
5568 5576 5584 5590 5597 5604 5609 5613 5619 5624 5629 5635 5641 5648 5654 5661 5667 5673 5679 5685 5689 5694 5698 5702 5705 5708 5712 5717 5719 5718 5719 5724 5729 5732 5735 5738 5741 5744 5748 5752 5756 5761 5767 5772 5776 5778 5781 5785 5790 5796 5801 5806 5810 5813 5817 5820 5824 5827 5829 5832 5835 5839 5842 5844 5847 5849 5852 5854 5856 5859 5861 5862 5864 5866 5867 5870 5871 5873 5874 5875 5876 5878 5879 5881 5882 5883 5885 5886
5566 5574 5581 5587 5594 5600 5605 5610 5616 5621 5626 5632 5639 5645 5651 5658 5664 5670 5676 5682 5687 5691 5694 5699 5702 5705 5708 5713 5716 5714 5715 5721 5727 5729 5732 5735 5738 5741 5746 5749 5753 5759 5764 5768 5772 5773 5777 5782 5787 5791 5797 5803 5807 5811 5813 5816 5821 5823 5825 5828 5832 5836 5839 5842 5845 5847 5850 5852 5855 5857 5858 5860 5863 5865 5866 5868 5870 5871 5873 5874 5876 5877 5878 5880 5881 5882 5883 5885
5563 5571 5578 5585 5591 5596 5602 5607 5612 5618 5623 5629 5636 5642 5648 5654 5660 5667 5673 5679 5683 5687 5692 5696 5699 5702 5706 5709 5711 5711 5712 5719 5724 5726 5729 5733 5735 5738 5743 5746 5750 5755 5759 5764 5767 5768 5772 5778 5782 5787 5793 5797 5802 5808 5811 5814 5817 5819 5822 5826 5830 5833 5836 5840 5842 5845 5848 5851 5853 5855 5856 5859 5862 5864 5865 5867 5868 5870 5871 5873 5874 5876 5877 5879 5880 5881 5882 5883
5559 5567 5575 5582 5587 5592 5598 5603 5609 5615 5619 5626 5633 5638 5644 5650 5657 5663 5669 5674 5679 5684 5690 5693 5696 5699 5702 5704 5708 5709 5711 5717 5721 5723 5726 5729 5733 5736 5740 5742 5746 5751 5755 5758 5760 5762 5768 5774 5779 5785 5790 5793 5798 5803 5807 5810 5813 5815 5819 5823 5827 5831 5835 5838 5841 5844 5847 5849 5851 5853 5855 5858 5861 5862 5864 5865 5867 5869 5870 5871 5873 5875 5876 5877 5879 5880 5881 5882
5557 5564 5571 5578 5583 5588 5594 5600 5606 5611 5616 5623 5629 5635 5640 5646 5652 5657 5663 5669 5675 5680 5684 5688 5693 5696 5698 5702 5706 5707 5709 5714 5717 5719 5722 5726 5730 5733 5736 5739 5743 5747 5749 5753 5756 5759 5765 5771 5776 5781 5785 5790 5795 5799 5802 5807 5811 5813 5816 5820 5823 5827 5832 5836 5840 5843 5846 5847 5850 5852 5854 5857 5859 5860 5861 5863 5865 5867 5869 5870 5872 5873 5875 5876 5877 5878 5880 5881
5555 5561 5568 5573 5579 5585 5591 5597 5603 5608 5613 5619 5624 5629 5635 5640 5646 5652 5658 5665 5672 5677 5682 5688 5693 5696 5699 5702 5704 5703 5706 5710 5713 5716 5719 5723 5726 5729 5732 5735 5739 5742 5745 5749 5753 5757 5762 5767 5772 5777 5783 5788 5793 5797 5801 5807 5810 5812 5817 5820 5822 5826 5831 5835 5839 5842 5845 5847 5849 5851 5853 5855 5856 5857 5859 5861 5863 5865 5867 5869 5871 5872 5873 5874 5875 5877 5878 5880
5551 5558 5564 5569 5576 5582 5589 5595 5601 5606 5611 5616 5620 5625 5630 5635 5641 5646 5654 5663 5672 5679 5685 5690 5693 5695 5698 5701 5701 5701 5704 5707 5710 5713 5716 5720 5723 5726 5729 5731 5734 5738 5742 5747 5751 5755 5759 5764 5770 5776 5783 5788 5792 5796 5800 5804 5807 5811 5817 5819 5822 5828 5833 5836 5839 5842 5843 5845 5847 5849 5851 5852 5853 5855 5857 5859 5861 5864 5866 5868 5869 5870 5871 5873 5874 5875 5876 5878
5548 5555 5561 5567 5573 5580 5587 5594 5599 5605 5612 5617 5624 5630 5635 5641 5647 5654 5660 5665 5670 5676 5681 5685 5687 5689 5693 5696 5697 5697 5700 5703 5706 5708 5712 5717 5720 5723 5726 5728 5732 5736 5741 5745 5748 5752 5756 5762 5770 5777 5782 5786 5790 5794 5798 5803 5805 5809 5813 5816 5821 5827 5829 5833 5837 5839 5841 5842 5844 5845 5847 5849 5852 5854 5855 5857 5860 5863 5864 5866 5867 5869 5870 5871 5872 5873 5875 5876
5546 5552 5558 5565 5572 5579 5586 5592 5598 5605 5611 5617 5625 5631 5639 5647 5655 5662 5667 5668 5670 5672 5676 5680 5682 5685 5690 5691 5691 5692 5696 5700 5702 5705 5709 5713 5717 5720 5723 5727 5731 5735 5739 5741 5744 5748 5753 5761 5769 5775 5779 5783 5787 5791 5796 5800 5802 5805 5810 5814 5819 5822 5825 5829 5833 5835 5837 5838 5839 5841 5844 5848 5850 5852 5853 5856 5858 5861 5862 5864 5865 5867 5868 5869 5870 5872 5873 5875
5543 5549 5556 5563 5570 5577 5584 5590 5597 5603 5609 5616 5623 5630 5637 5644 5650 5656 5660 5663 5667 5670 5674 5677 5680 5683 5686 5688 5688 5691 5695 5698 5701 5703 5707 5711 5714 5718 5721 5725 5729 5732 5734 5737 5742 5747 5753 5761 5767 5772 5776 5781 5785 5789 5792 5796 5798 5803 5809 5812 5816 5819 5822 5826 5830 5832 5833 5834 5835 5839 5843 5846 5847 5849 5851 5854 5857 5858 5860 5862 5863 5865 5866 5867 5869 5870 5871 5872
5541 5547 5554 5561 5568 5574 5581 5587 5594 5601 5608 5616 5621 5627 5634 5639 5645 5650 5652 5658 5663 5668 5671 5674 5678 5681 5683 5684 5686 5690 5694 5696 5699 5701 5705 5709 5712 5715 5719 5722 5725 5727 5731 5736 5741 5745 5751 5759 5763 5767 5773 5777 5781 5785 5790 5793 5797 5803 5808 5810 5813 5817 5820 5824 5828 5829 5830 5831 5834 5838 5841 5842 5845 5847 5850 5852 5854 5856 5858 5859 5861 5863 5864 5866 5867 5868 5869 5870
5539 5545 5552 5558 5565 5572 5578 5584 5591 5599 5606 5611 5617 5624 5631 5636 5642 5646 5651 5656 5660 5664 5667 5669 5673 5676 5679 5682 5684 5688 5692 5694 5697 5699 5702 5707 5709 5713 5716 5719 5721 5724 5728 5732 5736 5741 5747 5753 5758 5763 5769 5772 5776 5782 5787 5791 5796 5802 5806 5808 5811 5814 5818 5822 5824 5826 5828 5829 5833 5836 5837 5840 5843 5845 5847 5849 5851 5854 5855 5857 5859 5861 5862 5864 5865 5866 5867 5868
5536 5544 5550 5556 5562 5569 5575 5582 5591 5598 5603 5609 5617 5623 5629 5633 5638 5643 5649 5653 5655 5658 5663 5667 5670 5673 5676 5678 5680 5685 5688 5691 5694 5697 5700 5704 5707 5711 5713 5715 5719 5722 5725 5728 5731 5736 5743 5749 5755 5760 5766 5769 5774 5780 5784 5789 5794 5798 5803 5806 5807 5811 5816 5819 5821 5824 5825 5827 5830 5832 5834 5837 5840 5841 5843 5845 5848 5851 5853 5854 5856 5858 5860 5861 5863 5864 5865 5866
5535 5542 5548 5555 5562 5569 5575 5583 5589 5596 5603 5609 5616 5622 5627 5631 5637 5642 5645 5648 5650 5654 5659 5664 5668 5671 5674 5676 5679 5683 5685 5689 5693 5694 5698 5702 5704 5708 5710 5713 5717 5719 5722 5724 5728 5733 5739 5746 5751 5757 5762 5766 5773 5779 5783 5787 5791 5795 5800 5802 5804 5808 5813 5816 5818 5820 5821 5824 5827 5829 5831 5834 5836 5838 5840 5843 5845 5848 5850 5852 5853 5855 5857 5859 5860 5862 5863 5863
5534 5541 5547 5555 5562 5570 5578 5585 5590 5598 5605 5610 5615 5620 5625 5630 5635 5639 5640 5641 5644 5650 5657 5662 5666 5670 5673 5675 5678 5682 5685 5689 5691 5692 5695 5699 5701 5705 5708 5711 5714 5716 5719 5722 5726 5731 5737 5743 5747 5752 5758 5764 5771 5777 5781 5785 5788 5791 5796 5798 5801 5806 5810 5812 5814 5816 5818 5820 5823 5826 5828 5829 5833 5836 5838 5840 5843 5845 5848 5849 5851 5853 5854 5856 5857 5859 5860 5861
5534 5539 5546 5553 5560 5568 5576 5585 5593 5599 5603 5607 5613 5617 5622 5628 5633 5636 5636 5638 5642 5649 5655 5659 5663 5667 5671 5673 5677 5681 5684 5687 5688 5691 5694 5696 5698 5703 5706 5709 5712 5714 5718 5721 5726 5730 5735 5740 5744 5750 5756 5762 5769 5773 5777 5781 5784 5788 5792 5795 5798 5803 5806 5808 5810 5812 5814 5816 5819 5823 5825 5825 5829 5833 5836 5838 5840 5843 5845 5847 5849 5851 5852 5853 5855 5856 5857 5858
5532 5538 5545 5551 5557 5565 5573 5581 5590 5595 5599 5604 5608 5613 5618 5623 5627 5628 5629 5632 5639 5646 5651 5656 5661 5665 5668 5671 5675 5679 5681 5685 5687 5689 5691 5693 5697 5701 5704 5706 5709 5712 5716 5721 5724 5728 5733 5738 5743 5749 5754 5760 5765 5769 5774 5778 5781 5785 5789 5793 5797 5800 5804 5805 5807 5810 5810 5812 5816 5819 5821 5822 5824 5829 5833 5835 5838 5841 5843 5844 5847 5849 5850 5851 5852 5853 5854 5855
5531 5537 5544 5550 5557 5565 5572 5579 5585 5591 5597 5601 5604 5608 5613 5618 5621 5622 5625 5631 5639 5643 5648 5653 5658 5662 5666 5670 5673 5676 5679 5683 5685 5686 5688 5692 5695 5698 5700 5703 5706 5709 5714 5718 5722 5726 5731 5736 5742 5747 5753 5758 5762 5766 5770 5774 5778 5781 5785 5791 5794 5797 5799 5801 5802 5804 5805 5807 5812 5815 5817 5818 5819 5825 5830 5833 5837 5839 5840 5843 5845 5846 5847 5849 5850 5850 5851 5852
5530 5536 5543 5550 5557 5565 5573 5580 5584 5588 5593 5597 5601 5605 5608 5612 5615 5618 5624 5631 5636 5640 5647 5653 5657 5661 5665 5668 5670 5673 5677 5680 5682 5684 5687 5691 5693 5695 5698 5701 5704 5707 5711 5715 5719 5723 5729 5734 5739 5745 5750 5755 5759 5763 5766 5770 5773 5777 5781 5786 5790 5791 5793 5795 5796 5798 5800 5803 5807 5811 5813 5813 5815 5822 5827 5830 5835 5836 5837 5840 5843 5844 5845 5846 5846 5847 5848 5849
5528 5535 5541 5548 5556 5564 5572 5578 5581 5584 5588 5593 5598 5603 5606 5607 5609 5616 5624 5629 5634 5641 5649 5653 5657 5660 5662 5664 5666 5670 5674 5678 5680 5683 5686 5688 5692 5695 5697 5701 5705 5708 5712 5715 5716 5720 5726 5731 5736 5742 5746 5751 5755 5759 5763 5767 5770 5773 5777 5782 5784 5785 5786 5789 5791 5794 5797 5799 5803 5807 5809 5810 5814 5820 5824 5828 5831 5834 5835 5838 5839 5841 5841 5842 5843 5844 5846 5847
5527 5533 5539 5547 5555 5563 5568 5573 5577 5582 5586 5589 5593 5598 5602 5605 5611 5618 5623 5628 5635 5641 5645 5649 5653 5656 5658 5661 5664 5668 5671 5674 5678 5681 5684 5685 5688 5692 5696 5700 5704 5708 5712 5714 5716 5719 5723 5728 5733 5738 5742 5747 5751 5755 5760 5765 5769 5772 5775 5778 5780 5781 5783 5786 5788 5791 5795 5798 5801 5804 5805 5808 5813 5817 5821 5825 5828 5831 5832 5834 5836 5837 5838 5839 5841 5842 5843 5844
5525 5531 5539 5547 5554 5560 5565 5569 5574 5579 5583 5587 5591 5593 5597 5605 5614 5618 5622 5628 5633 5636 5641 5647 5650 5652 5654 5658 5663 5666 5669 5672 5675 5678 5681 5684 5687 5690 5693 5698 5703 5706 5708 5711 5715 5720 5724 5728 5733 5736 5740 5744 5748 5752 5757 5761 5764 5766 5769 5773 5776 5777 5780 5784 5786 5789 5793 5796 5797 5800 5802 5807 5811 5814 5818 5822 5824 5826 5828 5829 5832 5834 5835 5836 5838 5839 5840 5840
5523 5530 5538 5546 5551 5556 5561 5567 5572 5576 5581 5585 5589 5592 5599 5607 5613 5618 5623 5628 5630 5634 5639 5642 5645 5648 5651 5655 5659 5663 5667 5671 5674 5676 5679 5683 5686 5689 5693 5697 5702 5704 5706 5709 5713 5718 5723 5727 5732 5736 5739 5742 5745 5749 5753 5756 5759 5761 5764 5768 5772 5775 5777 5780 5783 5786 5789 5791 5793 5796 5800 5805 5807 5809 5813 5817 5819 5822 5824 5826 5828 5830 5832 5833 5834 5836 5836 5837
5522 5529 5537 5543 5548 5554 5559 5565 5569 5574 5579 5584 5588 5595 5603 5608 5611 5615 5620 5624 5628 5633 5637 5637 5640 5644 5648 5653 5657 5660 5665 5669 5672 5675 5679 5682 5684 5688 5692 5696 5701 5704 5705 5709 5713 5717 5722 5726 5730 5734 5737 5741 5744 5747 5751 5754 5756 5758 5761 5766 5771 5772 5774 5778 5781 5782 5785 5787 5789 5793 5796 5800 5802 5805 5809 5813 5816 5819 5821 5822 5824 5826 5828 5830 5831 5832 5832 5833
5521 5528 5534 5539 5546 5552 5558 5562 5567 5572 5577 5582 5589 5597 5602 5604 5608 5612 5615 5620 5625 5631 5634 5637 5641 5644 5647 5651 5655 5659 5663 5666 5669 5673 5676 5680 5683 5687 5691 5694 5699 5702 5704 5708 5712 5716 5721 5725 5729 5732 5735 5739 5742 5744 5747 5750 5753 5755 5759 5764 5767 5768 5771 5774 5776 5778 5780 5782 5785 5789 5792 5795 5798 5802 5806 5810 5813 5815 5817 5819 5820 5822 5823 5825 5826 5827 5828 5829
5518 5524 5530 5536 5543 5549 5554 5559 5565 5570 5574 5579 5586 5592 5596 5601 5606 5610 5613 5618 5624 5628 5632 5636 5641 5644 5647 5651 5654 5657 5661 5665 5668 5670 5674 5677 5681 5686 5690 5693 5697 5700 5702 5706 5711 5715 5719 5723 5726 5730 5733 5736 5738 5740 5743 5747 5750 5753 5757 5760 5763 5765 5768 5771 5773 5776 5778 5779 5782 5785 5787 5791 5796 5800 5803 5806 5809 5811 5813 5815 5817 5817 5818 5819 5821 5823 5824 5825
5517 5522 5527 5534 5540 5546 5551 5557 5562 5566 5572 5579 5585 5588 5593 5600 5605 5607 5611 5617 5622 5626 5630 5634 5638 5642 5646 5650 5653 5657 5660 5663 5666 5670 5673 5676 5680 5684 5688 5691 5696 5699 5700 5704 5709 5713 5716 5719 5723 5727 5729 5731 5734 5737 5741 5745 5748 5751 5755 5757 5760 5763 5765 5768 5771 5773 5774 5777 5779 5781 5783 5787 5793 5796 5798 5802 5805 5807 5809 5811 5812 5813 5814 5815 5817 5818 5819 5820
5515 5520 5526 5532 5537 5542 5547 5552 5558 5565 5572 5578 5582 5586 5592 5597 5601 5604 5609 5615 5621 5625 5630 5633 5637 5640 5644 5647 5651 5655 5659 5662 5665 5668 5671 5675 5679 5683 5686 5689 5694 5697 5699 5702 5706 5709 5713 5716 5719 5722 5725 5728 5731 5735 5738 5741 5745 5749 5752 5755 5759 5761 5763 5765 5768 5770 5772 5774 5776 5777 5780 5783 5788 5793 5796 5798 5800 5802 5804 5805 5807 5808 5810 5812 5812 5813 5814 5815
5513 5519 5525 5530 5535 5540 5545 5551 5558 5564 5569 5573 5577 5584 5590 5594 5597 5603 5608 5614 5618 5623 5627 5630 5634 5638 5641 5645 5650 5654 5656 5659 5664 5667 5670 5675 5678 5682 5686 5688 5692 5696 5697 5700 5704 5707 5710 5713 5715 5718 5721 5724 5727 5730 5733 5737 5741 5744 5747 5750 5754 5756 5758 5761 5763 5766 5768 5769 5770 5773 5775 5778 5783 5789 5793 5794 5795 5797 5798 5800 5802 5803 5806 5808 5808 5808 5810 5810
5510 5517 5523 5528 5533 5537 5543 5549 5555 5560 5564 5570 5576 5582 5587 5591 5596 5601 5607 5612 5616 5620 5623 5627 5631 5635 5638 5643 5647 5651 5654 5657 5661 5665 5669 5673 5676 5680 5683 5687 5691 5694 5695 5697 5700 5704 5708 5710 5712 5714 5717 5720 5723 5726 5729 5732 5735 5739 5742 5747 5749 5751 5754 5756 5757 5760 5761 5763 5767 5768 5769 5775 5781 5785 5788 5789 5789 5792 5793 5796 5798 5800 5802 5803 5803 5804 5805 5806
5507 5514 5520 5525 5529 5535 5540 5545 5550 5556 5562 5569 5574 5578 5583 5589 5594 5599 5605 5610 5614 5617 5621 5624 5628 5632 5636 5640 5644 5648 5652 5655 5658 5662 5665 5669 5674 5677 5681 5685 5688 5690 5692 5695 5698 5701 5704 5705 5707 5710 5712 5714 5717 5719 5722 5726 5731 5736 5740 5743 5744 5746 5749 5750 5752 5754 5756 5759 5763 5762 5765 5774 5779 5781 5783 5784 5786 5789 5790 5792 5794 5796 5798 5798 5798 5799 5800 5801
5503 5510 5517 5522 5526 5532 5538 5544 5550 5555 5560 5565 5570 5575 5581 5586 5591 5597 5603 5607 5611 5615 5618 5622 5626 5630 5633 5637 5641 5645 5648 5651 5655 5659 5662 5667 5671 5674 5678 5682 5684 5686 5690 5692 5695 5698 5699 5701 5703 5705 5707 5709 5713 5717 5722 5727 5731 5733 5736 5738 5740 5742 5745 5747 5749 5749 5751 5757 5759 5759 5764 5773 5777 5778 5780 5781 5783 5786 5786 5787 5789 5791 5792 5792 5793 5794 5795 5796
5499 5504 5510 5518 5525 5532 5537 5542 5548 5552 5557 5562 5567 5572 5579 5584 5588 5593 5599 5603 5608 5612 5616 5620 5624 5627 5630 5633 5637 5640 5643 5647 5651 5655 5659 5664 5667 5671 5675 5678 5681 5683 5686 5688 5691 5693 5694 5696 5700 5702 5705 5710 5715 5721 5726 5729 5729 5731 5734 5737 5739 5741 5743 5745 5744 5745 5751 5755 5755 5758 5765 5771 5773 5774 5775 5777 5779 5781 5781 5782 5783 5784 5786 5786 5787 5788 5790 5790
5497 5502 5507 5512 5520 5528 5534 5540 5545 5549 5555 5561 5566 5570 5576 5580 5585 5590 5595 5600 5604 5609 5613 5617 5621 5624 5627 5631 5634 5637 5641 5644 5647 5652 5656 5660 5664 5668 5671 5674 5677 5680 5683 5684 5686 5688 5689 5692 5696 5699 5704 5708 5713 5717 5720 5721 5723 5727 5731 5734 5735 5737 5738 5738 5739 5744 5750 5749 5749 5757 5764 5765 5768 5769 5769 5771 5774 5774 5776 5776 5777 5778 5779 5781 5782 5783 5785 5786
5495 5503 5510 5514 5519 5523 5529 5536 5543 5548 5553 5559 5564 5568 5573 5577 5581 5587 5592 5596 5601 5605 5609 5613 5617 5622 5626 5630 5633 5636 5638 5640 5644 5648 5652 5656 5660 5663 5666 5669 5672 5675 5678 5680 5681 5684 5686 5689 5693 5697 5700 5703 5706 5709 5712 5715 5718 5721 5724 5726 5728 5729 5730 5731 5735 5740 5743 5740 5744 5755 5758 5758 5763 5763 5762 5765 5767 5768 5770 5771 5771 5773 5775 5776 5778 5779 5780 5781
5494 5502 5508 5515 5520 5524 5529 5533 5538 5542 5548 5554 5559 5563 5569 5575 5580 5585 5589 5593 5597 5601 5606 5610 5615 5619 5623 5626 5629 5632 5635 5638 5642 5646 5649 5653 5655 5658 5661 5664 5667 5671 5674 5675 5678 5680 5682 5686 5690 5693 5696 5699 5700 5703 5707 5710 5712 5714 5717 5719 5721 5722 5723 5726 5730 5735 5737 5736 5742 5751 5751 5752 5757 5757 5758 5761 5762 5764 5767 5766 5767 5768 5770 5772 5773 5773 5774 5775
5493 5499 5505 5511 5517 5523 5528 5531 5534 5537 5542 5548 5553 5559 5565 5572 5577 5582 5587 5591 5595 5599 5604 5608 5613 5617 5620 5622 5625 5629 5633 5638 5641 5645 5648 5650 5652 5656 5658 5660 5664 5667 5669 5671 5673 5675 5679 5682 5684 5688 5691 5692 5694 5698 5701 5703 5706 5709 5711 5713 5715 5717 5720 5723 5728 5733 5734 5734 5740 5745 5743 5746 5754 5755 5756 5759 5759 5760 5762 5761 5762 5763 5765 5767 5767 5767 5768 5768
5492 5498 5504 5508 5513 5518 5524 5529 5533 5536 5539 5544 5550 5555 5561 5567 5573 5579 5584 5589 5593 5598 5603 5607 5610 5613 5616 5619 5623 5627 5631 5635 5637 5641 5644 5647 5650 5653 5655 5657 5660 5662 5664 5667 5669 5672 5676 5677 5679 5683 5684 5686 5690 5693 5694 5697 5700 5701 5703 5708 5712 5715 5719 5722 5726 5730 5731 5732 5736 5737 5736 5745 5753 5752 5751 5754 5754 5754 5756 5757 5757 5758 5759 5760 5760 5760 5761 5762
5490 5496 5501 5506 5510 5515 5520 5525 5529 5532 5537 5544 5550 5554 5558 5564 5569 5574 5579 5584 5589 5595 5600 5604 5607 5611 5614 5617 5621 5624 5628 5632 5634 5637 5639 5641 5644 5647 5648 5651 5654 5656 5659 5662 5664 5668 5670 5672 5675 5677 5679 5683 5686 5687 5689 5692 5690 5691 5700 5708 5711 5714 5716 5718 5720 5723 5725 5726 5728 5729 5734 5744 5747 5744 5745 5748 5748 5748 5750 5751 5751 5751 5751 5752 5754 5755 5755 5755